| time (UTC) | temp F | wind direction | speed knots | gust knots | rain 1hr in | rain 24hr in | rain mn in | humidity % | barometer mb |
| 20260504151047 | 71 | 232 | 8.7 | 14.8 | 0.00 | 0.00 | 0.00 | 72 | 1011.5 |
| 20260504141027 | 69 | 229 | 7.8 | 13.0 | 0.00 | 0.00 | 0.00 | 78 | 1012.1 |
| 20260504120119 | 68 | 240 | 8.7 | 16.5 | 0.00 | 0.00 | 0.00 | 79 | 1012.8 |
| 20260504081027 | 66 | 144 | 1.7 | 3.5 | 0.00 | 0.22 | 0.00 | 89 | 1012.8 |
| 20260504050019 | 60 | 92 | 0.9 | 1.7 | 0.00 | 0.24 | 0.00 | 95 | 1012.3 |
| 20260504045027 | 59 | 228 | 0.0 | 1.7 | 0.00 | 0.24 | 0.00 | 95 | 1012.4 |
| 20260504044019 | 59 | 0.0 | 1.7 | 0.00 | 0.24 | 0.00 | 95 | 1012.4 | |
| 20260504043027 | 59 | 8 | 0.9 | 1.7 | 0.00 | 0.24 | 0.00 | 95 | 1012.4 |
| 20260504042019 | 60 | 201 | 0.9 | 2.6 | 0.00 | 0.24 | 0.00 | 94 | 1012.6 |
| 20260504041027 | 60 | 171 | 0.9 | 1.7 | 0.00 | 0.24 | 0.00 | 95 | 1012.4 |
| 20260504040019 | 60 | 235 | 0.0 | 1.7 | 0.00 | 0.24 | 0.00 | 94 | 1012.4 |
| 20260504035027 | 60 | 247 | 0.9 | 1.7 | 0.00 | 0.24 | 0.00 | 94 | 1012.4 |
| 20260504034019 | 61 | 19 | 0.9 | 1.7 | 0.00 | 0.24 | 0.00 | 94 | 1012.7 |
| 20260504033027 | 60 | 353 | 1.7 | 2.6 | 0.00 | 0.24 | 0.00 | 94 | 1012.9 |
| 20260504032019 | 61 | 243 | 1.7 | 4.3 | 0.00 | 0.24 | 0.00 | 94 | 1013.0 |
| 20260504031027 | 60 | 204 | 2.6 | 3.5 | 0.00 | 0.24 | 0.00 | 94 | 1012.9 |
| 20260504030019 | 60 | 193 | 1.7 | 3.5 | 0.00 | 0.24 | 0.00 | 94 | 1012.9 |
| 20260504025027 | 60 | 244 | 0.0 | 1.7 | 0.00 | 0.24 | 0.00 | 94 | 1013.0 |
| 20260504024019 | 61 | 0.0 | 0.9 | 0.00 | 0.24 | 0.00 | 94 | 1012.9 | |
| 20260504023027 | 61 | 330 | 0.9 | 1.7 | 0.00 | 0.24 | 0.00 | 93 | 1012.9 |
| 20260504022059 | 61 | 264 | 0.9 | 3.5 | 0.00 | 0.24 | 0.00 | 93 | 1013.1 |
| 20260504021027 | 61 | 283 | 0.9 | 1.7 | 0.00 | 0.24 | 0.00 | 93 | 1013.0 |
| 20260504020019 | 62 | 351 | 1.7 | 3.5 | 0.00 | 0.24 | 0.00 | 93 | 1013.0 |
| 20260504015027 | 62 | 245 | 0.9 | 1.7 | 0.00 | 0.24 | 0.00 | 93 | 1013.1 |
| 20260504014019 | 62 | 242 | 0.9 | 1.7 | 0.00 | 0.24 | 0.00 | 93 | 1013.2 |
| 20260504013027 | 62 | 283 | 0.9 | 2.6 | 0.00 | 0.24 | 0.00 | 93 | 1013.2 |
| 20260504012019 | 62 | 235 | 1.7 | 5.2 | 0.00 | 0.24 | 0.00 | 93 | 1013.3 |
| 20260504011027 | 62 | 242 | 1.7 | 5.2 | 0.00 | 0.24 | 0.00 | 93 | 1013.3 |
| 20260504010019 | 62 | 234 | 3.5 | 7.8 | 0.00 | 0.24 | 0.00 | 93 | 1013.4 |
| 20260504005027 | 62 | 181 | 5.2 | 9.6 | 0.00 | 0.24 | 0.00 | 93 | 1013.4 |
| 20260504004019 | 62 | 189 | 4.3 | 7.8 | 0.00 | 0.24 | 0.00 | 93 | 1013.6 |
| 20260504003107 | 62 | 193 | 3.5 | 6.1 | 0.00 | 0.24 | 0.00 | 93 | 1013.9 |
| 20260504002019 | 61 | 207 | 2.6 | 5.2 | 0.00 | 0.24 | 0.00 | 92 | 1014.1 |
| 20260504001026 | 61 | 187 | 4.3 | 7.8 | 0.00 | 0.24 | 0.00 | 92 | 1013.9 |
| 20260504000019 | 61 | 182 | 3.5 | 4.3 | 0.00 | 0.24 | 0.00 | 93 | 1013.8 |
| 20260503235027 | 60 | 207 | 1.7 | 3.5 | 0.00 | 0.24 | 0.24 | 93 | 1013.7 |
| 20260503234019 | 60 | 238 | 2.6 | 3.5 | 0.00 | 0.24 | 0.24 | 93 | 1013.8 |
| 20260503233027 | 60 | 207 | 0.9 | 1.7 | 0.00 | 0.24 | 0.24 | 93 | 1013.7 |
| 20260503232019 | 61 | 266 | 0.9 | 1.7 | 0.00 | 0.24 | 0.24 | 92 | 1013.7 |
| 20260503231027 | 61 | 189 | 0.9 | 2.6 | 0.00 | 0.24 | 0.24 | 92 | 1013.7 |
| 20260503230039 | 61 | 171 | 1.7 | 2.6 | 0.00 | 0.24 | 0.24 | 92 | 1013.7 |
| 20260503225048 | 61 | 199 | 0.0 | 1.7 | 0.00 | 0.24 | 0.24 | 92 | 1013.7 |
| 20260503224019 | 61 | 80 | 0.0 | 1.7 | 0.00 | 0.24 | 0.24 | 92 | 1013.6 |
| 20260503223028 | 61 | 191 | 0.9 | 1.7 | 0.00 | 0.24 | 0.24 | 91 | 1013.8 |
| 20260503222020 | 61 | 182 | 0.9 | 1.7 | 0.00 | 0.24 | 0.24 | 91 | 1013.6 |
| 20260503221027 | 61 | 177 | 1.7 | 2.6 | 0.00 | 0.24 | 0.24 | 91 | 1013.4 |
| 20260503220039 | 61 | 150 | 1.7 | 2.6 | 0.00 | 0.24 | 0.24 | 91 | 1013.5 |
| 20260503215048 | 62 | 153 | 1.7 | 2.6 | 0.00 | 0.24 | 0.24 | 91 | 1013.5 |
| 20260503214020 | 61 | 180 | 2.6 | 3.5 | 0.00 | 0.24 | 0.24 | 91 | 1013.5 |
| 20260503213027 | 61 | 188 | 1.7 | 2.6 | 0.00 | 0.24 | 0.24 | 91 | 1013.6 |
| 20260503212019 | 61 | 192 | 0.9 | 2.6 | 0.00 | 0.24 | 0.24 | 90 | 1013.5 |
| 20260503211048 | 61 | 161 | 0.9 | 1.7 | 0.00 | 0.24 | 0.24 | 90 | 1013.4 |
| 20260503210019 | 61 | 68 | 1.7 | 1.7 | 0.00 | 0.24 | 0.24 | 89 | 1013.4 |
| 20260503205027 | 62 | 0.0 | 0.9 | 0.00 | 0.24 | 0.24 | 89 | 1013.4 | |
| 20260503204019 | 62 | 79 | 0.9 | 3.5 | 0.00 | 0.24 | 0.24 | 88 | 1013.3 |
| 20260503203047 | 62 | 61 | 2.6 | 3.5 | 0.00 | 0.24 | 0.24 | 88 | 1013.2 |
| 20260503202059 | 63 | 53 | 1.7 | 2.6 | 0.00 | 0.24 | 0.24 | 87 | 1013.3 |
| 20260503201047 | 63 | 76 | 1.7 | 2.6 | 0.00 | 0.24 | 0.24 | 87 | 1013.4 |
| 20260503200018 | 63 | 79 | 1.7 | 3.5 | 0.00 | 0.24 | 0.24 | 86 | 1013.2 |
| 20260503195027 | 63 | 73 | 3.5 | 6.1 | 0.00 | 0.24 | 0.24 | 85 | 1012.9 |
| 20260503194019 | 64 | 48 | 2.6 | 4.3 | 0.00 | 0.24 | 0.24 | 84 | 1013.2 |
| 20260503193047 | 64 | 71 | 3.5 | 5.2 | 0.00 | 0.24 | 0.24 | 83 | 1013.2 |
| 20260503192019 | 64 | 64 | 4.3 | 7.0 | 0.00 | 0.24 | 0.24 | 82 | 1013.2 |
| 20260503191046 | 64 | 48 | 3.5 | 5.2 | 0.00 | 0.24 | 0.24 | 82 | 1013.1 |
| 20260503190019 | 64 | 74 | 1.7 | 2.6 | 0.00 | 0.24 | 0.24 | 81 | 1013.3 |
| 20260503185047 | 65 | 85 | 1.7 | 2.6 | 0.00 | 0.24 | 0.24 | 80 | 1013.4 |
| 20260503184019 | 65 | 86 | 2.6 | 4.3 | 0.00 | 0.24 | 0.24 | 79 | 1013.2 |
| 20260503183047 | 65 | 51 | 0.0 | 1.7 | 0.00 | 0.24 | 0.24 | 79 | 1013.3 |
| 20260503182019 | 65 | 0.0 | 1.7 | 0.00 | 0.24 | 0.24 | 77 | 1013.3 | |
| 20260503181027 | 65 | 63 | 1.7 | 3.5 | 0.00 | 0.24 | 0.24 | 77 | 1013.2 |
| 20260503180019 | 66 | 62 | 2.6 | 3.5 | 0.00 | 0.24 | 0.24 | 76 | 1013.2 |
| 20260503175027 | 66 | 58 | 1.7 | 3.5 | 0.00 | 0.24 | 0.24 | 76 | 1013.2 |
| 20260503174019 | 67 | 51 | 4.3 | 7.0 | 0.00 | 0.24 | 0.24 | 75 | 1013.1 |
| 20260503173027 | 67 | 64 | 4.3 | 8.7 | 0.00 | 0.24 | 0.24 | 75 | 1013.1 |
| 20260503172019 | 67 | 63 | 5.2 | 7.8 | 0.00 | 0.24 | 0.24 | 74 | 1013.0 |
| 20260503171027 | 68 | 53 | 5.2 | 7.8 | 0.00 | 0.24 | 0.24 | 72 | 1013.2 |